Flag for Germany Past Weather in Neustadt am Rübenberge, Lower Saxony, Germany — Yesterday and Last 2 Weeks

Now
54 °F

Cool.


Feels Like: 54 °F
Forecast: 47 / 66 °F
Wind: No wind

Location: Wunstorf Airport

Current Time: May 26, 2016 at 12:59:57 AM

Latest Report: May 26, 2016 at 12:20 AM


Visibility: 2 mi

Pressure: 30.01 "Hg

Humidity: 88%

Dew Point: 50 °F

Location of Neustadt am RübenbergeLocation

Past Weather in Neustadt am Rübenberge — Graph

°F

Neustadt am Rübenberge Temperature Yesterday

Maximum temperature yesterday: 59 °F (at 6:20 PM)
Minimum temperature yesterday: 52 °F (at 2:20 AM)
Average temperature yesterday: 54 °F

High & Low Weather Summary for the Past Weeks

 TemperatureHumidityPressure
High82 °F (May 22, 2:20 PM)100% (May 23, 1:20 AM)30.07 "Hg (May 23, 1:20 AM)
Low41 °F (May 15, 3:20 AM)25% (May 13, 1:20 PM)29.53 "Hg (May 12, 5:20 PM)
Average58 °F66%29.86 "Hg
* Reported May 10 11:20 PM — May 25 11:20 PM, Neustadt am Rübenberge, Weather by CustomWeather, © 2016

Note: Actual official high and low records may vary slightly from our data, if they occured in-between our weather recording intervals... More about our weather records

Advertising

Neustadt am Rübenberge Weather History for the Previous 24 Hours

Scroll right to see more
 ConditionsComfort  
Time TempWeatherWind HumidityBarometerVisibility
11:20 PM
Wed, May 25
55 °FCool.No wind82%30.01 "Hg3 mi
10:20 PM55 °FCool.2 mph82%30.01 "Hg3 mi
9:20 PM57 °FCool.3 mph77%29.98 "Hg3 mi
8:20 PM57 °FCool.No wind72%29.98 "Hg3 mi
7:20 PM59 °FPartly sunny.5 mph68%29.98 "HgN/A
6:20 PM59 °FBroken clouds.3 mph68%29.98 "HgN/A
5:20 PM57 °FBroken clouds.5 mph72%29.98 "HgN/A
4:20 PM57 °FBroken clouds.6 mph72%29.98 "HgN/A
3:20 PM57 °FPartly sunny.6 mph67%29.98 "HgN/A
2:20 PM55 °FPartly sunny.6 mph72%29.98 "HgN/A
1:20 PM55 °FPartly sunny.7 mph72%29.98 "HgN/A
12:20 PM54 °FPartly sunny.7 mph72%29.98 "HgN/A
11:20 AM54 °FPartly sunny.6 mph72%29.98 "HgN/A
10:20 AM52 °FPartly sunny.5 mph77%29.98 "HgN/A
9:20 AM52 °FPartly sunny.7 mph77%29.98 "HgN/A
8:20 AM52 °FPartly sunny.6 mph77%29.98 "HgN/A
7:20 AM52 °FPartly sunny.5 mph77%29.98 "HgN/A
6:20 AM52 °FPartly sunny.7 mph77%29.95 "HgN/A
5:20 AM52 °FPartly cloudy.3 mph82%29.95 "HgN/A
4:20 AM52 °FCool.6 mph82%29.95 "Hg3 mi
3:20 AM52 °FCool.6 mph88%29.95 "Hg3 mi
2:20 AM52 °FCool.5 mph77%29.98 "Hg4 mi
1:20 AM54 °FCool.7 mph77%29.95 "Hg4 mi
12:20 AM54 °FCool.9 mph77%29.98 "Hg4 mi
Weather by CustomWeather, © 2016

See weather overviewHow to use our weather pages